Regional Weather Roundup
Issued by NWS

Home | Current Version | Previous Version | Graphics & Text | Print | Product List | Glossary On
Versions: 1 2 3 4 5 6 7 8 9 10 11 12 13 14 15 16 17 18 19 20 21 22 23 24 25 26 27 28 29 30 31 32 33 34 35 36 37 38 39 40 41 42 43 44 45 46 47 48 49 50
000
ASUS43 KFSD 211002
RWRSD

WEATHER ROUNDUP FOR SOUTH DAKOTA
NATIONAL WEATHER SERVICE SIOUX FALLS SD
400 AM CST SAT JAN 21 2017

NOTE: "FAIR" INDICATES FEW OR NO CLOUDS BELOW 12,000 FEET WITH NO
SIGNIFICANT WEATHER AND/OR OBSTRUCTIONS TO VISIBILITY.


SDZ001>005-009-010-012>017-211100-
NORTHWEST AND NORTH CENTRAL SOUTH DAKOTA

CITY           SKY/WX    TMP DP  RH WIND       PRES   REMARKS
BUFFALO          N/A     31  28  89 W15       29.26S WCI  20
FAITH            N/A     26  26 100 W5        29.31R WCI  20
MOBRIDGE       CLOUDY    28  23  81 NW6       29.27F HAZE    WCI  22
$$

SDZ012>016-024>037-041>051-057-063-072>074-211100-
SOUTHWEST AND SOUTH CENTRAL SOUTH DAKOTA

CITY           SKY/WX    TMP DP  RH WIND       PRES   REMARKS
RAPID CTY ARPT CLOUDY    34  31  88 N12       29.34S WCI  25
PIERRE         CLOUDY    26  24  92 NW10      29.32R WCI  16
CUSTER         CLOUDY    26  23  88 W5        29.31F WCI  20
ELLSWORTH AFB  CLOUDY    34  32  93 N8        29.34S WCI  27
PHILIP         CLOUDY    32  30  92 NW12      29.32F WCI  23
PINE RIDGE     MOCLDY    32  31  96 W3        29.36F
SPEARFISH        N/A     30  30 100 W6        29.34F WCI  24
WINNER         CLOUDY    27  23  85 CALM      29.34F
$$

SDZ004>011-016>023-039-040-211100-
NORTHEAST SOUTH DAKOTA

CITY           SKY/WX    TMP DP  RH WIND       PRES   REMARKS
ABERDEEN       CLOUDY    31  28  89 NE3       29.33S FOG
WATERTOWN      FOG       34  34 100 SE6       29.33F VSB 1/2 WCI  29
BROOKINGS      CLOUDY    35  34  96 SE12      29.33F FOG     WCI  27
SISSETON         N/A     34  34 100 S9        29.37F WCI  27
$$

SDZ017-020-022-023-036>040-048>070-211100-
SOUTHEAST SOUTH DAKOTA

CITY           SKY/WX    TMP DP  RH WIND       PRES   REMARKS
SIOUX FALLS    FOG       36  36 100 SE7       29.35S VSB 1/2
HURON          CLOUDY    28  28 100 NW7       29.32F WCI  21
CHAMBERLAIN    CLOUDY    25  25  99 SW5       29.34F FOG     WCI  20
MITCHELL       CLOUDY    37  36  96 W6        29.34S
YANKTON        CLOUDY    37  36  93 CALM      29.34S VSB 1/2
$$

ABBREVIATIONS USED IN REMARKS
   TC - TEMPERATURE IN CELSIUS
  WCI - WIND CHILL INDEX
   HX - HEAT INDEX
  VSB - VISIBILITY




USA.gov is the U.S. government's official web portal to all federal, state and local government web resources and services.